Location: Unnamed Road
(35.9029°N, 51.9749°E)
Time: 02:32:09
(UTC+04:30)

Courier 1B - Visible Passes

Search period start: 26 May 2020 00:00
Search period end: 05 June 2020 00:00
Orbit: 963 x 1209 km, 28.3° (Epoch: 24 May)

Date Brightness Start Highest point End Pass type
(mag) Time Alt. Az. Time Alt. Az. Time Alt. Az.
26 May 9.4 02:03:26 21° ESE 02:03:26 21° ESE 02:06:21 10° ESE visible
26 May 8.2 03:50:18 32° SW 03:53:30 47° S 04:00:49 10° ESE visible
27 May 8.2 02:59:34 44° S 02:59:37 44° S 03:06:56 10° E visible
27 May 8.3 04:46:27 11° WSW 04:53:35 48° S 05:00:50 10° ESE visible
28 May 9.0 02:08:52 29° ESE 02:08:52 29° ESE 02:12:57 10° E visible
28 May 8.2 03:55:45 28° WSW 03:59:42 49° S 04:07:06 10° ESE visible
29 May 9.9 01:18:13 12° ESE 01:18:13 12° ESE 01:18:53 10° E visible
29 May 8.1 03:05:06 48° SSW 03:05:48 49° S 03:13:16 10° ESE visible
29 May 8.4 04:52:27 10° W 04:59:44 42° SSW 05:06:52 10° SE visible
30 May 8.7 02:14:32 35° SE 02:14:32 35° SE 02:19:21 10° ESE visible
30 May 8.2 04:01:25 24° WSW 04:05:53 46° S 04:13:13 10° ESE visible
31 May 9.7 01:24:03 15° ESE 01:24:03 15° ESE 01:25:22 10° E visible
31 May 8.1 03:10:57 46° SSW 03:12:00 48° S 03:19:27 10° ESE visible
31 May 8.6 04:58:58 10° W 05:05:50 34° SSW 05:12:35 10° SE visible
01 Jun 8.6 02:20:38 37° SE 02:20:38 37° SE 02:25:36 10° ESE visible
01 Jun 8.4 04:07:33 21° WSW 04:12:00 39° SSW 04:19:07 10° SE visible
01 Jun 9.4 21:34:05 10° S 21:35:05 12° SSE 21:35:05 12° SSE visible
02 Jun 9.7 01:30:30 15° ESE 01:30:30 15° ESE 01:31:40 10° ESE visible
02 Jun 8.2 03:17:26 42° SSW 03:18:10 43° S 03:25:28 10° ESE visible
02 Jun 8.9 05:05:50 10° WSW 05:11:50 24° SSW 05:17:49 10° SSE visible
02 Jun 9.2 22:30:58 10° SSW 22:33:05 18° SSW 22:33:05 18° SSW visible
03 Jun 8.8 02:27:33 31° SE 02:27:33 31° SE 02:31:43 10° ESE visible
03 Jun 8.7 04:14:29 21° WSW 04:18:05 29° SSW 04:24:37 10° SE visible
03 Jun 8.8 21:38:05 10° SSW 21:43:09 21° SSE 21:43:58 21° SE visible
03 Jun 9.6 23:29:55 10° SW 23:30:56 14° SW 23:30:56 14° SW visible
04 Jun 8.5 03:24:53 34° S 03:24:53 34° S 03:31:12 10° SE visible
04 Jun 9.3 05:13:30 10° WSW 05:17:47 16° SSW 05:22:04 10° S visible
04 Jun 9.1 20:45:37 10° S 20:49:35 16° SSE 20:53:40 10° ESE visible
04 Jun 8.4 22:36:32 10° SW 22:41:36 34° S 22:41:36 34° S visible
